EW1268 Weather Reports


time (UTC)temp
C
wind
direction
speed
KPH
gust
KPH
rain 1hr
cm
rain 24hr
cm
rain mn
cm
humidity
%
barometer
mb
20260510070028 22 119 1.6 8.0 0.00 0.08 0.00 92 1011.1
20260510065516 22 137 1.6 8.0 0.00 0.08 0.00 92 1011.0
20260510065008 22 146 1.6 14.5 0.00 0.08 0.00 92 1011.0
20260510064512 22 178 3.2 14.5 0.00 0.08 0.00 92 1010.9
20260510064009 22 188 3.2 11.3 0.00 0.08 0.00 92 1010.8
20260510063509 22 171 4.8 11.3 0.00 0.08 0.00 92 1010.9
20260510063022 22 167 4.8 11.3 0.00 0.08 0.00 92 1010.9
20260510062511 23 171 4.8 11.3 0.00 0.08 0.00 91 1010.9
20260510062011 23 93 3.2 11.3 0.00 0.08 0.00 91 1010.9
20260510061526 23 205 6.4 11.3 0.00 0.08 0.00 91 1011.0
20260510061010 23 184 4.8 11.3 0.00 0.08 0.00 92 1011.1
20260510060506 23 200 3.2 11.3 0.00 0.08 0.00 91 1011.2
20260510060018 23 165 3.2 8.0 0.00 0.08 0.00 91 1011.3
20260510055510 23 209 3.2 9.7 0.00 0.08 0.00 91 1011.2
20260510055006 23 137 3.2 11.3 0.00 0.08 0.00 91 1011.2
20260510054525 23 161 3.2 11.3 0.00 0.08 0.00 91 1011.2
20260510054012 22 178 3.2 9.7 0.00 0.08 0.00 91 1011.3
20260510053510 22 178 3.2 9.7 0.00 0.08 0.00 91 1011.3
20260510053029 22 265 3.2 11.3 0.00 0.08 0.00 90 1011.3
20260510052507 22 187 1.6 11.3 0.00 0.08 0.00 90 1011.5
20260510052008 22 93 3.2 11.3 0.00 0.08 0.00 90 1011.3
20260510051520 22 138 3.2 9.7 0.00 0.08 0.00 90 1011.3
20260510051009 22 167 4.8 9.7 0.00 0.08 0.00 90 1011.3
20260510050509 22 205 3.2 9.7 0.00 0.08 0.00 90 1011.3
20260510050029 22 161 3.2 8.0 0.00 0.08 0.00 89 1011.2
20260510045510 22 178 0.0 8.0 0.00 0.08 0.08 89 1011.3
20260510045011 22 51 0.0 8.0 0.00 0.08 0.08 89 1011.3
20260510044519 22 170 3.2 8.0 0.00 0.08 0.08 89 1011.2
20260510044006 22 178 1.6 8.0 0.00 0.08 0.08 89 1011.3
20260510043510 22 221 1.6 6.4 0.00 0.08 0.08 89 1011.5
20260510043024 22 107 1.6 4.8 0.00 0.08 0.08 88 1011.5
20260510042508 22 200 1.6 3.2 0.00 0.08 0.08 88 1011.5
20260510042008 22 165 0.0 6.4 0.00 0.08 0.08 88 1011.6
20260510041529 22 109 1.6 8.0 0.00 0.08 0.08 88 1011.5
20260510041009 22 171 1.6 8.0 0.00 0.08 0.08 88 1011.4
20260510040511 22 209 1.6 9.7 0.00 0.08 0.08 88 1011.3
20260510040020 22 150 1.6 9.7 0.00 0.08 0.08 88 1011.2
20260510035510 22 133 4.8 11.3 0.00 0.08 0.08 88 1011.2
20260510035008 22 150 3.2 11.3 0.00 0.08 0.08 88 1011.2
20260510034524 22 93 1.6 14.5 0.00 0.08 0.08 89 1011.4
20260510034013 22 171 3.2 14.5 0.00 0.08 0.08 89 1011.2
20260510033510 22 144 3.2 9.7 0.00 0.08 0.08 89 1011.3
20260510033026 22 165 3.2 8.0 0.00 0.08 0.08 89 1011.5
20260510032507 22 265 1.6 4.8 0.00 0.08 0.08 89 1011.4
20260510032009 22 119 1.6 4.8 0.00 0.08 0.08 89 1011.4
20260510031524 22 214 1.6 4.8 0.00 0.08 0.08 88 1011.4
20260510031011 22 93 1.6 3.2 0.00 0.08 0.08 88 1011.3
20260510030509 22 61 0.0 3.2 0.00 0.08 0.08 88 1011.2
20260510030035 22 93 0.0 3.2 0.00 0.08 0.08 88 1011.2
20260510025509 22 93 0.0 3.2 0.00 0.08 0.08 88 1010.9
20260510025016 22 338 1.6 4.8 0.00 0.08 0.08 88 1010.8
20260510024528 22 221 1.6 8.0 0.00 0.08 0.08 88 1010.6
20260510024009 22 157 1.6 8.0 0.00 0.08 0.08 88 1010.4
20260510023512 22 93 1.6 8.0 0.00 0.08 0.08 88 1010.3
20260510023024 22 159 3.2 9.7 0.00 0.08 0.08 88 1010.2
20260510022511 22 115 3.2 9.7 0.00 0.08 0.08 88 1010.2
20260510022011 22 165 4.8 11.3 0.00 0.08 0.08 88 1010.1
20260510021529 22 169 4.8 11.3 0.00 0.08 0.08 89 1009.9
20260510021010 22 170 3.2 9.7 0.00 0.08 0.08 89 1009.7
20260510020507 22 101 1.6 3.2 0.00 0.08 0.08 88 1009.5
20260510020023 22 153 0.0 3.2 0.00 0.08 0.08 88 1009.4
20260510015509 22 238 0.0 3.2 0.00 0.08 0.08 88 1009.3
20260510015008 22 51 0.0 3.2 0.00 0.08 0.08 88 1009.0
20260510014527 22 93 1.6 4.8 0.00 0.08 0.08 87 1008.9
20260510014010 22 161 0.0 4.8 0.00 0.08 0.08 87 1008.8
20260510013508 22 51 0.0 3.2 0.00 0.08 0.08 87 1008.8
20260510013026 22 67 0.0 3.2 0.00 0.08 0.08 87 1008.9
20260510012511 22 83 1.6 3.2 0.00 0.08 0.08 87 1008.8
20260510012008 22 76 0.0 4.8 0.00 0.08 0.08 86 1008.9
20260510011523 22 137 1.6 6.4 0.00 0.08 0.08 86 1008.8
20260510011008 22 196 1.6 6.4 0.00 0.08 0.08 86 1008.8
20260510010509 22 153 0.0 6.4 0.00 0.08 0.08 85 1008.9
20260510010026 22 309 1.6 8.0 0.00 0.08 0.08 85 1008.8
20260510005509 22 58 1.6 8.0 0.00 0.08 0.08 84 1008.6
20260510005008 23 83 1.6 8.0 0.03 0.08 0.08 83 1008.3
20260510004528 23 291 0.0 6.4 0.03 0.08 0.08 83 1008.3
20260510004010 23 178 0.0 11.3 0.08 0.08 0.08 82 1008.3
20260510003509 22 205 3.2 17.7 0.08 0.08 0.08 82 1008.3
20260510003026 22 170 6.4 17.7 0.08 0.08 0.08 83 1008.5
20260510002509 22 175 8.0 16.1 0.08 0.08 0.08 84 1008.7
20260510002011 22 188 6.4 14.5 0.08 0.08 0.08 84 1008.6
20260510001528 22 182 3.2 17.7 0.08 0.08 0.08 84 1008.8
20260510001011 22 163 8.0 19.3 0.08 0.08 0.08 84 1008.9
20260510000508 22 171 6.4 22.5 0.08 0.08 0.08 84 1009.2
20260510000021 22 173 6.4 22.5 0.08 0.08 0.08 85 1009.6
20260509235510 22 96 4.8 22.5 0.08 0.08 0.08 84 1009.3
20260509235011 23 169 11.3 35.4 0.05 0.05 0.05 82 1009.2
20260509234528 24 165 11.3 35.4 0.05 0.05 0.05 80 1008.7
20260509234010 26 184 11.3 25.7 0.00 0.00 0.00 75 1008.7
20260509233511 28 221 9.7 24.1 0.00 0.00 0.00 66 1008.5
20260509233027 29 192 11.3 24.1 0.00 0.00 0.00 66 1008.4
20260509232515 30 213 11.3 24.1 0.00 0.00 0.00 67 1008.0
20260509232009 31 166 6.4 14.5 0.00 0.00 0.00 69 1007.9
20260509231523 32 146 4.8 12.9 0.00 0.00 0.00 66 1008.0
20260509231007 32 221 1.6 6.4 0.00 0.00 0.00 67 1007.9
20260509230510 33 93 1.6 4.8 0.00 0.00 0.00 67 1007.9
20260509230028 33 170 1.6 6.4 0.00 0.00 0.00 67 1007.9
20260509225508 33 107 1.6 8.0 0.00 0.00 0.00 65 1007.8
20260509225009 34 143 1.6 8.0 0.00 0.00 0.00 64 1007.7
20260509224532 35 163 1.6 6.4 0.00 0.00 0.00 65 1007.7
20260509224008 35 119 1.6 8.0 0.00 0.00 0.00 64 1007.6
20260509223507 35 87 1.6 8.0 0.00 0.00 0.00 62 1007.7
20260509223023 36 119 1.6 8.0 0.00 0.00 0.00 65 1007.8
20260509222509 35 193 3.2 8.0 0.00 0.00 0.00 66 1007.5
20260509222009 35 178 1.6 6.4 0.00 0.00 0.00 66 1007.4
20260509221531 35 247 1.6 4.8 0.00 0.00 0.00 67 1007.4
20260509221011 34 58 1.6 6.4 0.00 0.00 0.00 66 1007.5
20260509220513 33 247 1.6 6.4 0.00 0.00 0.00 68 1007.6
20260509220021 33 51 1.6 6.4 0.00 0.00 0.00 70 1007.5
20260509215512 33 309 1.6 6.4 0.00 0.00 0.00 69 1007.4
20260509215012 33 291 1.6 4.8 0.00 0.00 0.00 68 1007.5
20260509214530 33 265 0.0 4.8 0.00 0.00 0.00 68 1007.5
20260509214009 34 67 0.0 9.7 0.00 0.00 0.00 66 1007.4
20260509213508 34 205 1.6 9.7 0.00 0.00 0.00 72 1007.6
20260509213016 33 137 4.8 9.7 0.00 0.00 0.00 72 1007.6
20260509212507 32 334 1.6 6.4 0.00 0.00 0.00 72 1007.6
20260509212010 33 314 3.2 9.7 0.00 0.00 0.00 69 1007.7
20260509211529 33 9 1.6 9.7 0.00 0.00 0.00 70 1007.7
20260509211011 33 116 3.2 6.4 0.00 0.00 0.00 72 1007.6
20260509210516 33 56 1.6 6.4 0.00 0.00 0.00 73 1007.8
20260509210027 32 221 1.6 6.4 0.00 0.00 0.00 72 1007.8
20260509205508 32 30 1.6 9.7 0.00 0.00 0.00 71 1008.0
20260509205006 32 30 1.6 9.7 0.00 0.00 0.00 71 1008.0
20260509204520 33 291 1.6 9.7 0.00 0.00 0.00 72 1008.1
20260509204011 32 90 3.2 9.7 0.00 0.00 0.00 77 1008.1
20260509203510 32 16 3.2 6.4 0.00 0.00 0.00 79 1008.1
20260509203029 31 170 1.6 8.0 0.00 0.00 0.00 76 1008.2
20260509202510 31 19 1.6 8.0 0.00 0.00 0.00 74 1008.4
20260509202019 32 309 0.0 6.4 0.00 0.00 0.00 72 1008.4
20260509201525 32 265 1.6 6.4 0.00 0.00 0.00 72 1008.5
20260509201012 32 325 3.2 9.7 0.00 0.00 0.00 76 1008.6
20260509200511 32 30 3.2 9.7 0.00 0.00 0.00 72 1008.6
20260509200023 32 238 1.6 9.7 0.00 0.00 0.00 79 1008.7
20260509195513 31 67 3.2 9.7 0.00 0.00 0.00 76 1008.7
20260509195010 31 254 3.2 8.0 0.00 0.00 0.00 74 1008.7
20260509194529 31 9 3.2 14.5 0.00 0.00 0.00 75 1008.7
20260509194015 31 9 3.2 16.1 0.00 0.00 0.00 73 1008.8
20260509193511 31 328 3.2 16.1 0.00 0.00 0.00 73 1008.7
20260509193030 31 51 3.2 9.7 0.00 0.00 0.00 78 1008.7
20260509192507 31 334 3.2 9.7 0.00 0.00 0.00 73 1008.8
20260509192010 31 309 1.6 9.7 0.00 0.00 0.00 74 1008.9
20260509191526 31 297 3.2 9.7 0.00 0.00 0.00 73 1008.9
20260509191011 31 184 3.2 9.7 0.00 0.00 0.00 74 1008.9
20260509190511 30 338 1.6 8.0 0.00 0.00 0.00 74 1009.0
20260509190025 31 257 3.2 8.0 0.00 0.00 0.00 74 1009.0
20260509185507 30 178 1.6 6.4 0.00 0.00 0.00 78 1009.0
20260509185014 30 319 1.6 6.4 0.00 0.00 0.00 78 1009.1
20260509184530 30 9 1.6 9.7 0.00 0.00 0.00 77 1009.2
20260509184012 30 61 1.6 9.7 0.00 0.00 0.00 77 1009.3
20260509183514 30 261 3.2 11.3 0.00 0.00 0.00 80 1009.4
20260509183026 30 249 3.2 11.3 0.00 0.00 0.00 77 1009.5
20260509182511 30 196 6.4 11.3 0.00 0.00 0.00 78 1009.5
20260509182013 30 225 3.2 8.0 0.00 0.00 0.00 79 1009.7
20260509181531 30 241 1.6 8.0 0.00 0.00 0.00 78 1009.7
20260509181010 30 42 1.6 8.0 0.00 0.00 0.00 78 1009.8
20260509180508 30 194 1.6 11.3 0.00 0.03 0.00 80 1009.8
20260509180024 29 184 4.8 14.5 0.00 0.03 0.00 79 1009.8
20260509175510 30 93 4.8 14.5 0.00 0.03 0.00 79 1010.0
20260509175011 29 229 3.2 12.9 0.00 0.03 0.00 80 1010.1
20260509174528 30 250 4.8 14.5 0.00 0.03 0.00 79 1010.2
20260509174010 30 190 3.2 16.1 0.00 0.03 0.00 79 1010.2
20260509173509 30 171 8.0 16.1 0.00 0.03 0.00 80 1010.2
20260509173016 30 217 6.4 17.7 0.00 0.03 0.00 82 1010.4
20260509172512 30 206 8.0 17.7 0.00 0.03 0.00 81 1010.3
20260509172010 30 194 6.4 16.1 0.00 0.03 0.00 82 1010.3
20260509171526 30 168 8.0 16.1 0.00 0.03 0.00 83 1010.3
20260509171011 30 185 6.4 14.5 0.00 0.03 0.00 84 1010.4
20260509170511 29 165 4.8 11.3 0.00 0.03 0.00 85 1010.6
20260509170029 29 93 1.6 11.3 0.00 0.03 0.00 83 1010.6
20260509165512 29 146 3.2 12.9 0.00 0.03 0.00 86 1010.7
20260509165008 28 190 3.2 12.9 0.00 0.03 0.00 87 1010.7
20260509164522 28 236 1.6 6.4 0.00 0.03 0.00 87 1010.6
20260509164011 27 163 1.6 6.4 0.00 0.03 0.00 88 1010.7
20260509163513 27 272 1.6 6.4 0.00 0.03 0.00 89 1010.6
20260509163025 26 265 1.6 3.2 0.00 0.03 0.00 88 1010.6
20260509162515 26 9 0.0 3.2 0.00 0.03 0.00 88 1010.6
20260509162011 26 67 0.0 1.6 0.00 0.03 0.00 88 1010.6
20260509161530 26 9 0.0 4.8 0.00 0.03 0.00 89 1010.6
20260509161010 26 9 1.6 4.8 0.00 0.03 0.00 89 1010.7
20260509160507 26 61 1.6 3.2 0.00 0.03 0.00 89 1010.5
20260509160024 26 51 0.0 3.2 0.00 0.03 0.00 89 1010.5
20260509155509 26 22 1.6 3.2 0.00 0.03 0.00 90 1010.6
20260509155013 26 67 0.0 3.2 0.00 0.03 0.00 89 1010.7
20260509154526 26 41 0.0 3.2 0.00 0.03 0.00 90 1010.7
20260509154014 26 26 1.6 3.2 0.00 0.03 0.00 91 1010.6
20260509153511 26 137 0.0 3.2 0.00 0.03 0.00 91 1010.6
20260509153019 26 80 1.6 3.2 0.00 0.03 0.00 92 1010.4
20260509152512 25 137 0.0 3.2 0.00 0.03 0.00 92 1010.5
20260509152009 25 51 0.0 3.2 0.00 0.03 0.00 92 1010.6
20260509151526 25 93 0.0 3.2 0.00 0.03 0.00 93 1010.7
20260509151008 25 93 0.0 4.8 0.00 0.03 0.00 93 1010.4
20260509150512 25 76 1.6 4.8 0.00 0.03 0.00 93 1010.2
20260509150030 25 46 1.6 8.0 0.00 0.03 0.00 94 1010.4
20260509145510 25 107 1.6 8.0 0.00 0.03 0.00 94 1010.3
20260509145011 25 190 1.6 6.4 0.00 0.03 0.00 94 1010.3
20260509144530 25 146 0.0 3.2 0.00 0.03 0.00 94 1010.2
20260509144010 24 44 1.6 3.2 0.00 0.03 0.00 94 1010.0
20260509143513 24 190 0.0 3.2 0.00 0.03 0.00 95 1009.9
20260509143028 24 325 0.0 3.2 0.00 0.03 0.00 95 1010.0
20260509142511 24 93 1.6 3.2 0.00 0.03 0.00 95 1009.9
20260509142010 24 51 0.0 3.2 0.00 0.03 0.00 95 1009.7
20260509141526 24 41 0.0 3.2 0.00 0.03 0.00 95 1009.8
20260509141012 24 205 1.6 3.2 0.00 0.03 0.00 95 1009.8
20260509140511 24 67 0.0 3.2 0.00 0.03 0.00 95 1009.6
20260509140026 24 93 0.0 8.0 0.00 0.03 0.00 95 1009.5
20260509135514 23 205 1.6 8.0 0.00 0.03 0.00 95 1009.5
20260509135012 23 143 1.6 6.4 0.00 0.03 0.00 95 1009.8
20260509134530 23 137 1.6 6.4 0.00 0.03 0.00 95 1009.8
20260509134013 23 178 1.6 6.4 0.00 0.03 0.00 95 1010.1
20260509133516 23 153 1.6 6.4 0.00 0.03 0.00 95 1010.5
20260509133029 23 221 1.6 6.4 0.00 0.03 0.00 95 1010.6
20260509132510 23 129 1.6 3.2 0.00 0.03 0.00 96 1010.2
20260509132011 23 67 0.0 6.4 0.00 0.03 0.00 96 1010.6
20260509131528 23 51 0.0 8.0 0.00 0.03 0.00 96 1010.6
20260509131015 23 142 3.2 8.0 0.00 0.03 0.00 96 1010.6
20260509130511 23 170 0.0 3.2 0.00 0.03 0.00 95 1010.7
20260509130030 23 165 0.0 3.2 0.00 0.03 0.00 95 1010.8
20260509125505 23 205 0.0 3.2 0.00 0.03 0.00 95 1011.0
20260509125009 23 265 0.0 3.2 0.00 0.03 0.00 95 1010.8
20260509124524 23 265 0.0 4.8 0.00 0.03 0.00 96 1010.4
20260509124009 23 161 1.6 4.8 0.00 0.03 0.00 96 1010.0
20260509123508 23 265 0.0 4.8 0.00 0.03 0.00 95 1010.2
20260509123026 23 137 0.0 4.8 0.00 0.03 0.00 95 1010.5
20260509122510 23 165 0.0 4.8 0.00 0.03 0.00 95 1010.4
20260509122008 23 265 1.6 3.2 0.00 0.03 0.00 95 1010.5
20260509121520 23 146 0.0 3.2 0.00 0.03 0.00 95 1010.5
20260509121007 23 161 0.0 3.2 0.00 0.03 0.00 95 1010.6
20260509120510 23 178 0.0 3.2 0.00 0.03 0.00 95 1010.6
20260509120032 23 153 0.0 3.2 0.00 0.03 0.00 95 1010.5
20260509115513 23 93 0.0 3.2 0.00 0.03 0.00 95 1010.3
20260509115010 23 265 0.0 1.6 0.00 0.03 0.00 95 1010.3
20260509114526 23 178 0.0 1.6 0.00 0.03 0.00 95 1010.2
20260509114008 23 119 0.0 3.2 0.00 0.03 0.00 95 1010.3
20260509113508 23 93 0.0 3.2 0.00 0.03 0.00 95 1010.3
20260509113022 23 26 0.0 3.2 0.00 0.03 0.00 95 1010.2
20260509112508 23 34 0.0 3.2 0.00 0.03 0.00 95 1010.2
20260509112007 23 51 1.6 3.2 0.00 0.03 0.00 95 1010.2
20260509111525 23 9 1.6 3.2 0.00 0.03 0.00 95 1010.1
20260509111009 23 34 0.0 3.2 0.00 0.03 0.00 95 1010.1
20260509110514 23 41 0.0 3.2 0.00 0.03 0.00 95 1009.9
20260509110021 23 137 0.0 3.2 0.00 0.03 0.00 95 1009.8
20260509105508 23 205 0.0 3.2 0.00 0.03 0.00 95 1009.8
20260509105008 23 51 0.0 3.2 0.00 0.03 0.00 95 1009.8
20260509104527 23 51 0.0 3.2 0.00 0.03 0.00 95 1009.7
20260509104009 23 34 0.0 3.2 0.00 0.03 0.00 95 1009.6
20260509103514 23 163 1.6 4.8 0.00 0.03 0.00 95 1009.6
20260509103029 23 309 1.6 4.8 0.00 0.03 0.00 95 1009.5
20260509102508 23 211 1.6 4.8 0.00 0.03 0.00 95 1009.5
20260509102008 23 165 1.6 3.2 0.00 0.03 0.00 95 1009.7
20260509101525 23 137 0.0 3.2 0.00 0.03 0.00 95 1009.8
20260509101010 23 211 0.0 3.2 0.00 0.03 0.00 95 1009.7
20260509100511 23 178 0.0 3.2 0.00 0.03 0.00 95 1009.7
20260509100026 23 211 0.0 3.2 0.00 0.03 0.00 95 1009.6
20260509095508 23 51 0.0 3.2 0.00 0.03 0.00 95 1009.5
20260509095010 23 51 0.0 3.2 0.00 0.03 0.00 95 1009.4
20260509094526 23 67 0.0 3.2 0.00 0.03 0.00 95 1009.4
20260509094007 23 34 0.0 3.2 0.00 0.03 0.00 95 1009.3
20260509093508 23 51 0.0 3.2 0.00 0.03 0.00 95 1009.3
20260509093024 23 51 1.6 3.2 0.00 0.03 0.00 95 1009.2
20260509092516 23 9 0.0 3.2 0.00 0.03 0.00 95 1009.3
20260509092011 23 61 1.6 3.2 0.00 0.03 0.00 95 1009.2
20260509091526 23 67 0.0 3.2 0.00 0.03 0.00 95 1009.5
20260509091014 23 51 0.0 3.2 0.00 0.03 0.00 95 1009.7
20260509090511 23 93 0.0 3.2 0.00 0.03 0.00 95 1009.8
20260509090018 23 61 1.6 3.2 0.00 0.03 0.00 95 1009.8
20260509085509 23 9 0.0 3.2 0.00 0.03 0.00 95 1009.7
20260509085010 23 26 0.0 1.6 0.00 0.03 0.00 95 1009.8
20260509084534 23 67 0.0 3.2 0.00 0.03 0.00 95 1009.8
20260509084013 23 51 0.0 3.2 0.00 0.03 0.00 95 1009.8
20260509083510 23 41 1.6 3.2 0.00 0.03 0.00 94 1009.7
20260509083037 23 9 0.0 3.2 0.00 0.03 0.00 95 1009.6
20260509082511 23 34 0.0 3.2 0.00 0.03 0.00 95 1009.6
20260509082010 23 76 0.0 3.2 0.00 0.03 0.00 95 1009.6
20260509081527 23 309 0.0 3.2 0.00 0.03 0.00 95 1009.6
20260509081008 23 119 0.0 3.2 0.00 0.03 0.00 95 1009.6
20260509080507 23 137 0.0 3.2 0.00 0.03 0.00 95 1009.6
20260509080035 23 93 0.0 6.4 0.00 0.03 0.00 95 1009.5
20260509075509 23 178 0.0 8.0 0.00 0.03 0.00 95 1009.6
20260509075010 23 165 1.6 8.0 0.00 0.03 0.00 95 1009.5
20260509074530 23 178 1.6 6.4 0.00 0.03 0.00 95 1009.6
20260509074010 23 67 0.0 8.0 0.00 0.03 0.00 95 1009.5
20260509073508 23 178 3.2 8.0 0.00 0.03 0.00 95 1009.3
20260509073026 23 211 3.2 8.0 0.00 0.03 0.00 94 1009.2
20260509072508 23 200 3.2 8.0 0.00 0.03 0.00 94 1009.2
20260509072010 23 178 3.2 11.3 0.00 0.03 0.00 94 1009.4
20260509071528 23 178 1.6 11.3 0.00 0.03 0.00 94 1009.6
20260509071010 23 171 3.2 9.7 0.00 0.03 0.00 94 1009.6
20260509070510 23 196 3.2 8.0 0.00 0.03 0.00 94 1009.8